Location: White Ridge parking lot
(35.4984°N, 106.8413°W)
Time: 03:14:07
(UTC-06:00)

ITAMSAT 1 - Pass Details

Date: 25 September 2019
Orbit: 784 x 797 km, 98.9° (Epoch: 18 October)

Event Time Altitude Azimuth Distance (km) Brightness Sun altitude
Rises 06:05:57 0° 18° (NNE) 3,280 11.2 -11.3°
Reaches altitude 10° 06:08:20 10° 23° (NNE) 2,349 10.5 -10.8°
Maximum altitude 06:13:25 56° 101° (E) 936 8.5 -9.8°
Drops below altitude 10° 06:18:29 10° 179° (S) 2,343 10.1 -8.8°
Sets 06:20:50 0° 184° (S) 3,270 10.8 -8.3°
